This is the latest recevied weather packets stored in our database for station/object WB5RFA. If no packets are shown the sender has not sent any weather packets the latest 10 day(s).
| Time | Temp. | Humidity | Pressure | Rain* | Wind** | Luminosity | Snow |
|---|---|---|---|---|---|---|---|
| 1777764791 | 17.22° C | 32% | 1017.2 hPa | 0 mm | - | - | - |
| 1777764311 | 17.22° C | 32% | 1017.3 hPa | 0 mm | - | - | - |
| 1777763830 | 17.22° C | 31% | 1017.3 hPa | 0 mm | - | - | - |
| 1777763352 | 17.78° C | 32% | 1017.5 hPa | 0 mm | - | - | - |
| 1777762871 | 17.78° C | 33% | 1017.5 hPa | 0 mm | - | - | - |
| 1777762390 | 17.78° C | 32% | 1017.4 hPa | 0 mm | - | - | - |
| 1777761910 | 17.78° C | 33% | 1017.5 hPa | 0 mm | - | - | - |
| 1777761432 | 18.33° C | 34% | 1017.6 hPa | 0 mm | - | - | - |
| 1777760951 | 18.33° C | 32% | 1017.6 hPa | 0 mm | - | - | - |
| 1777760470 | 18.33° C | 32% | 1017.6 hPa | 0 mm | - | - | - |
| 1777759991 | 18.33° C | 32% | 1017.8 hPa | 0 mm | - | - | - |
| 1777759510 | 18.33° C | 31% | 1018 hPa | 0 mm | - | - | - |
| 1777759032 | 17.78° C | 33% | 1018 hPa | 0 mm | - | - | - |
| 1777758551 | 18.33° C | 32% | 1018 hPa | 0 mm | - | - | - |
| 1777758070 | 17.78° C | 32% | 1018.1 hPa | 0 mm | - | - | - |
| 1777757591 | 17.78° C | 32% | 1018.2 hPa | 0 mm | - | - | - |
| 1777757110 | 17.78° C | 30% | 1018.2 hPa | 0 mm | - | - | - |
| 1777756631 | 17.22° C | 34% | 1018.3 hPa | 0 mm | - | - | - |
| 1777756151 | 17.22° C | 33% | 1018.4 hPa | 0 mm | - | - | - |
| 1777755671 | 17.78° C | 32% | 1018.5 hPa | 0 mm | - | - | - |
| 1777755190 | 17.78° C | 31% | 1018.7 hPa | 0 mm | - | - | - |
| 1777754711 | 17.22° C | 33% | 1018.7 hPa | 0 mm | - | - | - |
| 1777754230 | 17.78° C | 31% | 1018.8 hPa | 0 mm | - | - | - |
| 1777753751 | 17.78° C | 33% | 1018.8 hPa | 0 mm | - | - | - |
| 1777753270 | 17.78° C | 33% | 1018.9 hPa | 0 mm | - | - | - |
* Rain latest hour (hover to see other rain measurements)
** Current wind speed in m/s (hover to see current wind gust speed)